Theta_e
312 312 312 312 312 311 311 312 312 311 312 311 311 311 311 312 312 311 311 312 312 313 314 314 315 315 315 315 315 315 314 309 307 305 303 304 310 316 323 322 324 327 326 310 302 299 295 295 297 296 296 297 295 295 295 297 295 294 289 283 283 283 285 286 290 291 293 292 294 294 297 301 300 304 307 311 307 308 308 309 310 313 315 320 327 332 333 333
312 312 312 312 312 312 311 311 311 312 312 312 311 312 312 312 311 311 311 312 313 313 314 314 314 315 315 315 315 315 312 308 304 304 305 313 320 320 321 321 325 325 318 305 301 297 296 294 296 296 295 294 294 294 296 293 298 290 286 285 284 283 287 290 292 293 293 292 294 293 293 296 302 304 302 304 303 306 306 306 308 312 319 325 328 329 330 330
312 312 313 312 312 312 312 311 311 311 312 312 312 312 312 311 311 312 312 313 313 313 314 314 314 315 315 315 314 315 310 305 304 300 305 320 320 321 322 323 324 329 309 303 299 297 297 297 297 296 292 294 291 292 293 292 297 290 289 285 286 288 289 292 294 295 295 295 294 293 295 301 301 301 301 304 303 305 305 304 306 311 316 320 324 327 327 327
313 312 312 312 312 312 311 311 311 311 311 311 311 311 311 311 312 312 312 313 313 313 314 314 315 315 315 315 315 312 306 303 300 303 309 321 324 322 323 324 326 328 310 302 297 298 297 297 297 296 295 292 290 293 292 291 293 290 290 286 287 289 291 292 294 295 294 295 294 293 296 296 297 299 304 304 303 303 304 308 308 310 316 318 322 323 324 324
312 312 312 312 312 312 313 312 311 311 311 312 312 311 312 312 312 312 312 313 313 314 314 314 314 314 315 315 315 309 301 291 300 310 312 327 328 325 324 325 327 316 307 298 299 298 298 296 296 296 295 290 289 292 289 290 294 292 290 290 292 291 292 295 295 295 295 295 295 293 294 296 298 304 305 305 301 301 305 309 311 315 318 319 319 320 322 320
312 312 312 312 312 312 312 312 311 312 312 312 311 311 312 312 312 312 313 313 314 314 314 314 314 314 315 315 311 307 299 286 300 305 332 328 329 328 327 327 331 308 302 299 298 298 297 296 295 293 290 291 289 289 288 291 295 289 288 290 292 293 293 293 296 295 295 295 295 295 297 294 295 300 302 296 302 305 309 312 312 316 319 321 320 319 317 318
312 312 312 312 312 312 312 312 312 312 312 312 311 312 312 312 313 313 313 313 314 314 314 314 314 314 314 313 306 305 295 296 304 306 328 329 330 329 330 331 321 300 298 297 298 298 296 296 295 292 292 290 288 288 291 293 294 292 288 290 293 293 293 295 295 294 292 294 296 296 296 295 295 298 296 297 296 301 309 312 313 316 318 318 316 316 316 316
311 311 312 312 312 312 313 313 313 312 313 313 313 313 312 313 313 313 313 313 313 313 314 314 314 314 314 308 304 298 298 298 306 311 332 329 326 328 318 304 300 299 298 295 296 296 297 295 294 295 292 290 289 291 292 292 293 290 290 292 293 294 294 295 294 293 293 292 294 294 295 295 293 295 297 296 298 304 309 310 310 311 312 312 313 313 313 312
311 312 312 313 313 313 313 313 313 313 313 313 313 313 313 313 312 312 312 312 313 313 314 314 314 314 314 307 301 296 296 305 311 315 320 314 312 302 300 300 299 299 297 297 298 297 298 295 296 296 291 291 293 293 292 292 288 291 293 294 293 293 293 294 294 294 293 294 294 295 294 294 297 296 295 295 300 306 309 309 308 308 309 309 310 310 310 309
311 312 312 312 313 313 313 313 313 313 313 313 313 313 313 313 312 312 313 313 313 313 313 314 314 314 308 304 298 291 302 311 310 316 313 313 308 302 301 300 299 298 298 297 298 299 298 297 298 298 297 294 296 293 294 291 289 290 292 292 294 294 293 294 293 293 292 294 295 296 294 295 294 296 290 298 305 308 309 307 308 308 307 308 309 309 309 308
311 312 312 312 313 313 313 313 313 313 313 313 313 312 312 312 312 312 312 312 312 312 313 314 314 312 304 305 293 292 307 303 308 310 312 311 305 300 300 301 299 299 298 298 298 299 300 300 300 303 299 294 295 292 292 293 293 293 293 292 292 292 293 294 293 292 293 297 291 293 294 292 291 295 291 299 305 309 307 307 307 307 307 308 309 309 308 309
312 312 312 312 312 312 313 313 313 313 313 313 313 313 312 312 312 312 312 312 313 313 313 313 314 310 307 303 295 296 309 305 309 308 310 308 303 302 301 303 301 300 299 298 299 300 300 300 300 298 292 296 291 294 292 293 295 294 293 289 290 289 293 294 293 293 295 295 293 291 290 290 289 292 295 302 305 308 307 306 307 306 306 307 309 308 308 307
311 312 312 312 312 312 312 313 313 313 313 313 313 313 312 312 312 312 312 312 313 313 313 313 313 310 303 292 298 307 310 309 306 306 307 306 303 303 303 303 303 302 301 299 299 301 301 300 300 297 297 296 292 292 295 296 294 293 291 289 290 284 287 293 292 293 294 295 292 294 284 279 286 290 295 301 304 306 306 305 306 306 305 305 307 307 306 306
311 312 312 312 312 312 312 312 313 313 313 313 313 313 314 313 312 312 313 312 313 314 314 314 312 307 303 295 302 311 311 308 306 304 302 306 302 300 304 305 304 303 306 300 302 303 303 299 300 299 297 295 293 295 295 291 291 290 290 287 286 285 284 289 291 292 293 294 293 292 285 282 286 288 291 296 301 304 304 305 305 305 303 304 306 306 306 306
311 311 311 312 312 312 313 313 313 313 313 313 313 313 313 313 313 313 313 312 312 313 314 313 307 302 294 296 305 308 324 310 306 303 303 302 300 299 300 302 303 304 305 303 303 305 303 299 298 296 293 297 296 293 288 286 284 285 286 281 281 283 282 287 291 292 292 293 292 290 282 287 288 288 290 294 298 301 303 304 303 302 302 303 306 306 305 305
311 312 312 312 312 312 312 312 312 313 313 313 313 313 313 313 313 313 313 313 313 312 311 306 307 302 295 292 301 317 308 305 305 309 304 304 301 299 300 299 298 300 302 301 305 305 300 301 296 293 295 294 289 284 283 284 281 282 285 279 282 283 283 287 291 291 292 292 293 292 285 284 288 290 290 292 299 299 301 300 300 300 301 303 306 305 304 305
311 312 312 312 312 312 312 312 312 312 313 313 313 313 312 313 313 313 313 313 312 313 309 302 308 306 290 300 309 304 302 303 305 305 305 303 302 301 301 298 299 298 298 299 301 303 298 300 298 296 293 290 287 286 285 277 278 277 283 284 283 284 284 284 288 292 290 292 289 291 287 286 287 291 291 293 296 299 299 300 298 299 301 303 305 305 304 304
311 311 312 311 311 311 311 312 311 312 312 312 311 310 308 311 312 310 309 311 311 310 308 310 306 298 295 302 297 300 305 302 303 303 304 303 303 301 299 298 297 297 298 296 295 297 296 294 293 288 286 285 287 282 281 278 280 282 283 282 284 284 285 286 285 290 291 290 289 289 287 286 288 289 289 294 292 296 299 299 298 299 300 302 304 304 304 304
311 311 311 311 311 311 311 311 311 312 312 311 310 312 312 311 309 307 305 306 301 294 292 297 294 290 288 296 301 303 305 305 303 303 302 302 302 301 301 302 298 296 293 292 292 295 294 293 288 286 284 282 284 283 281 284 284 285 286 285 285 285 284 286 288 290 291 288 287 287 287 288 288 289 289 293 293 292 295 295 296 298 300 301 304 304 303 304
311 311 311 311 311 311 311 311 311 311 312 307 304 306 307 300 298 302 305 305 298 298 297 301 299 300 301 301 301 304 307 304 301 300 301 303 301 298 297 299 296 294 293 290 290 293 296 287 284 282 283 286 288 288 289 289 288 290 287 286 285 286 284 287 288 291 294 288 285 285 286 286 288 287 289 291 292 293 291 293 296 297 299 300 303 304 304 304
311 311 311 311 311 311 311 311 312 311 312 308 304 305 299 298 290 289 295 300 302 302 299 300 302 301 302 303 304 304 299 298 299 298 300 304 298 297 293 295 292 290 287 291 292 298 295 286 284 287 288 289 290 291 292 291 291 289 286 287 284 285 287 289 292 294 295 290 286 287 288 288 288 289 290 292 293 293 291 292 295 297 299 301 302 303 303 304
310 311 311 311 311 311 311 311 312 312 309 304 305 302 305 306 305 304 300 293 299 303 303 302 304 302 306 305 307 308 304 300 297 298 299 301 298 294 291 291 288 288 287 290 288 285 285 284 289 291 291 292 294 293 292 291 289 287 289 286 286 282 285 288 291 293 294 290 286 287 290 288 290 291 292 293 293 292 292 292 293 296 298 299 301 303 303 302
310 311 311 311 311 311 311 312 311 310 306 301 302 306 305 308 308 307 305 298 296 301 302 302 301 301 303 307 307 307 301 297 296 296 298 299 294 294 290 290 289 289 291 291 288 284 285 284 291 293 292 293 293 293 291 289 287 285 284 284 284 284 287 283 287 291 293 291 290 290 289 288 290 291 293 294 293 293 294 294 293 295 296 298 300 303 303 302
311 311 311 311 311 311 311 312 309 307 302 302 303 303 306 307 306 308 302 293 292 297 302 302 303 302 302 303 306 305 299 298 296 296 301 298 293 293 292 288 289 289 286 288 288 286 286 290 293 293 294 293 292 292 290 287 287 287 287 286 284 287 286 286 285 290 290 291 290 286 283 283 285 289 291 293 294 294 295 295 294 294 296 299 299 300 303 303
310 311 311 311 311 311 312 311 303 304 304 303 302 305 306 307 310 306 302 296 295 297 306 303 305 304 305 307 304 301 298 298 297 298 300 298 293 293 290 291 290 285 286 287 288 288 288 292 295 294 293 294 292 290 289 288 285 283 286 289 288 288 289 289 288 287 280 282 286 289 280 277 282 286 290 293 292 293 292 292 294 295 295 295 297 299 301 304
310 311 311 311 311 311 310 304 304 305 303 302 303 307 305 309 311 308 299 289 286 295 299 296 303 299 306 300 301 298 298 295 297 299 299 298 301 294 295 290 290 287 285 287 287 286 288 291 295 292 291 292 291 289 290 290 283 284 287 290 291 289 289 288 288 286 280 281 284 289 282 273 280 285 288 290 290 290 292 291 293 294 294 295 297 298 300 303
311 311 311 311 310 309 298 298 304 305 299 301 304 308 309 310 311 311 302 281 277 293 294 300 298 297 303 300 299 297 287 287 297 300 298 303 298 300 291 286 289 290 292 289 285 284 292 291 293 293 292 290 288 287 290 290 285 284 288 290 290 290 289 288 287 286 280 285 287 285 281 279 278 282 288 289 288 290 290 292 292 294 295 294 296 298 299 302
310 311 311 311 310 308 299 302 300 298 301 305 306 309 313 311 311 306 291 277 276 298 295 294 297 303 302 301 299 294 294 296 290 295 298 299 298 294 293 286 289 288 290 289 281 285 289 289 291 291 290 287 286 288 290 291 287 286 290 291 291 290 289 288 287 284 283 284 280 279 285 281 276 282 288 289 287 288 290 291 293 294 294 294 295 297 298 302
310 310 311 311 309 310 302 301 300 301 302 304 307 311 317 309 305 296 280 275 291 291 304 294 304 300 296 298 297 293 295 297 291 293 297 298 297 293 289 288 287 287 288 289 282 284 291 292 291 292 289 287 289 289 292 293 289 291 290 291 288 289 288 286 281 283 281 279 275 278 282 279 276 279 282 285 287 287 289 292 293 293 294 294 294 296 298 300
310 310 310 309 305 305 299 302 301 304 308 309 311 314 312 305 296 286 278 274 295 286 295 295 295 292 293 291 290 292 293 293 295 295 295 293 293 295 295 292 289 288 289 288 287 287 290 296 300 293 290 292 291 291 292 293 292 293 291 290 284 283 281 282 280 278 279 273 275 280 282 282 276 279 281 283 285 286 288 289 291 293 294 294 295 296 297 299
309 310 309 309 299 308 306 301 306 310 310 313 314 308 303 296 284 275 273 282 296 291 294 292 292 294 292 290 287 290 292 292 293 295 291 294 292 291 289 290 287 282 280 279 284 285 287 289 294 292 297 293 293 291 290 290 290 290 286 282 283 284 279 278 276 277 274 267 274 278 282 280 275 278 279 284 287 288 289 289 291 292 294 294 294 295 296 298
308 308 309 304 305 307 302 300 305 312 313 311 309 301 298 288 286 281 278 295 284 287 288 286 290 290 290 291 289 290 288 290 292 293 288 287 286 286 286 282 281 280 277 277 282 283 285 286 286 289 299 294 289 290 284 284 284 285 283 282 279 276 271 273 274 273 272 272 278 280 282 281 278 281 285 286 288 290 289 290 291 292 292 293 293 295 295 297
307 308 310 308 309 303 306 307 309 312 311 308 303 295 286 276 277 278 283 287 283 289 286 291 288 289 289 288 286 288 291 288 289 290 292 288 287 286 286 286 285 286 280 279 280 280 280 283 287 288 290 294 290 287 281 285 282 283 283 278 277 274 268 266 267 269 273 277 279 280 281 279 280 284 286 287 290 290 291 292 292 292 293 293 293 293 294 295
307 308 302 308 307 308 310 312 313 311 308 303 297 293 284 279 280 298 288 285 289 291 291 289 288 288 286 284 288 289 283 288 289 288 290 285 286 283 284 286 287 288 285 280 281 277 273 277 282 286 285 291 290 287 285 284 281 283 283 285 282 276 274 269 272 270 273 276 278 282 280 275 278 283 289 290 291 292 293 293 294 295 295 295 295 295 294 294
307 306 303 305 307 311 310 311 309 311 301 298 290 284 279 277 279 281 283 284 287 291 288 288 288 285 283 283 287 289 290 286 289 288 287 284 281 282 283 285 287 286 283 281 281 277 281 278 282 288 291 290 288 290 288 284 283 282 284 284 281 279 276 278 274 275 276 275 275 278 278 276 281 287 290 291 293 293 293 294 295 294 295 295 295 295 296 295
308 306 306 308 313 314 313 314 309 306 301 293 282 280 278 281 284 286 286 291 290 287 286 285 283 279 278 278 284 287 290 288 288 285 283 287 284 284 286 286 287 288 283 280 278 279 280 279 285 288 289 288 290 291 290 287 278 283 285 283 282 285 282 274 275 279 273 272 271 271 279 281 282 286 289 290 292 292 292 293 294 294 294 294 294 294 295 296
304 307 308 309 316 317 316 314 311 304 298 290 280 280 281 289 291 288 293 291 290 289 282 282 281 283 279 280 280 283 287 287 285 285 282 284 284 287 287 287 291 288 288 286 282 281 280 277 283 287 287 291 291 290 289 289 288 283 280 281 287 289 285 280 273 270 267 269 270 275 274 276 277 275 285 289 289 290 290 291 292 293 294 294 294 294 294 295
302 306 311 313 313 310 311 309 307 301 294 288 284 295 292 290 294 292 292 291 291 287 282 281 282 285 280 281 278 283 286 284 283 284 282 283 283 291 287 288 290 291 291 290 285 284 284 279 281 286 288 288 289 290 288 289 289 285 284 288 285 277 279 278 276 271 269 267 266 272 274 275 277 280 282 286 286 287 289 290 291 292 292 292 293 293 294 294
302 302 301 309 309 309 311 308 305 297 290 286 279 287 293 293 295 291 292 293 290 286 284 284 282 283 283 280 280 282 284 281 283 282 280 283 280 289 290 290 289 291 292 289 285 284 283 279 278 284 287 288 285 284 281 282 287 288 288 285 285 280 279 275 276 277 276 267 267 269 275 274 279 280 286 286 286 287 287 288 289 291 292 293 292 293 293 293
301 298 299 309 307 305 308 305 297 294 291 288 283 286 293 291 292 292 292 291 289 287 285 285 285 283 284 283 284 283 283 284 283 281 284 283 284 287 289 291 289 290 290 292 288 288 284 280 274 280 285 286 282 280 280 280 284 285 282 280 280 280 282 280 281 278 276 265 264 266 267 272 277 282 286 287 287 288 288 288 288 289 290 292 292 293 293 293
300 297 297 306 305 303 300 296 291 290 290 289 291 292 291 290 292 290 291 292 290 293 290 286 284 282 283 283 284 285 284 282 282 281 283 282 283 279 289 289 290 289 288 288 288 285 280 280 278 278 283 283 282 284 285 284 283 283 284 284 282 281 281 277 275 278 277 277 271 266 270 274 281 289 289 287 287 288 288 288 288 289 289 289 290 290 290 291
295 289 295 304 303 300 294 286 286 290 286 283 285 290 288 300 290 288 290 291 292 288 291 288 288 287 284 284 284 284 283 280 281 282 283 282 285 284 288 290 289 289 288 284 286 289 286 280 279 278 279 281 284 287 288 288 286 286 284 283 282 280 279 276 271 273 277 277 277 275 271 274 283 288 288 288 289 289 289 288 289 290 289 289 289 290 290 290
289 291 301 304 301 298 288 280 285 283 284 287 291 291 291 290 289 289 289 290 289 290 289 287 288 286 287 286 285 284 284 281 283 282 282 284 284 288 289 291 290 290 286 284 287 288 304 278 277 278 279 281 283 285 286 287 286 285 282 281 279 280 279 276 274 275 275 274 276 273 272 273 283 288 288 287 289 288 288 288 288 288 288 288 288 289 290 292
292 292 297 304 299 296 289 284 283 281 286 289 289 288 290 290 289 287 288 288 289 288 288 288 287 288 286 287 285 284 285 278 283 284 281 283 285 289 291 290 291 288 289 285 285 288 280 278 280 274 270 274 276 277 280 281 282 279 281 281 281 280 281 280 279 278 275 275 277 273 270 270 285 289 287 286 287 287 287 288 289 288 289 289 290 290 291 292
293 293 295 297 298 295 286 284 282 276 284 286 286 286 287 287 289 291 289 288 290 288 287 285 288 288 286 286 285 285 285 283 281 283 285 285 285 289 290 290 291 290 293 296 298 290 282 280 279 273 270 267 265 265 268 271 277 279 281 280 282 281 280 279 275 274 271 273 278 272 269 276 281 285 285 285 285 285 286 287 289 288 289 290 290 291 292 293
290 283 285 287 290 290 289 290 288 287 281 284 280 283 287 285 288 291 291 290 290 290 287 289 286 287 286 285 283 283 283 286 283 282 284 283 285 288 290 290 290 293 299 301 298 289 283 280 280 276 275 274 276 277 278 280 280 279 280 279 280 281 280 280 275 271 271 269 274 275 277 278 281 281 283 284 284 284 285 287 287 289 289 289 289 291 292 294
289 283 282 281 286 286 285 286 288 287 284 287 281 285 285 285 287 289 291 287 289 289 288 286 285 283 283 283 282 282 284 284 285 284 284 284 285 287 290 288 289 295 298 294 296 282 279 276 278 280 279 279 279 279 280 282 280 279 280 280 278 280 280 279 273 274 276 276 273 277 278 278 279 280 281 281 283 285 286 287 287 288 289 289 290 290 294 292
283 285 286 288 284 281 281 281 289 287 287 288 284 287 285 285 285 283 288 289 289 288 285 285 285 285 284 284 282 279 281 280 281 279 284 284 283 285 284 287 287 292 292 287 290 285 282 276 279 281 279 280 280 281 282 282 281 281 281 280 279 279 279 278 274 278 278 274 275 277 277 276 277 281 282 282 283 285 286 288 289 289 289 289 288 290 290 291
288 285 288 290 283 283 284 287 290 288 285 289 285 286 283 283 282 286 286 285 285 285 285 278 282 284 285 285 282 279 281 278 276 280 281 280 281 281 280 283 286 287 287 285 286 284 282 274 278 280 279 279 280 280 281 281 279 280 280 279 279 279 279 280 280 279 279 279 280 280 277 278 279 282 283 285 286 286 287 288 288 288 288 289 288 288 289 289
284 284 284 287 284 284 284 285 287 284 282 288 282 285 285 283 282 284 286 285 279 283 287 282 283 284 285 284 281 280 281 281 281 278 281 281 279 281 280 281 281 283 284 284 285 285 283 275 284 279 276 276 277 280 279 279 279 279 279 279 278 278 279 279 278 277 280 279 279 278 275 275 278 281 283 286 286 286 287 288 288 287 288 288 288 288 288 289
290 290 290 285 280 283 287 284 284 282 277 282 281 286 285 284 283 285 284 287 284 284 285 284 284 284 284 283 283 282 285 283 282 282 283 281 279 282 281 280 284 281 282 282 283 283 283 276 280 280 274 275 276 279 279 279 278 277 277 279 278 277 274 276 276 278 278 275 276 276 274 271 279 282 285 286 286 287 286 287 287 288 287 289 287 288 288 289
290 291 291 285 282 288 283 283 282 279 278 283 287 286 285 284 285 285 279 286 287 289 288 285 285 283 282 282 281 283 285 285 286 285 286 286 285 283 284 284 284 282 280 281 281 280 279 278 275 274 274 271 277 278 279 277 277 277 275 276 280 279 279 278 280 280 280 276 274 271 274 276 282 285 284 284 284 285 284 286 286 287 288 289 289 288 289 289
Wind_Speed
10 10 10 10 10 9 9 10 10 11 11 10 10 10 10 10 9 9 9 9 9 8 10 10 11 12 13 13 14 15 13 8 7 0 2 12 8 10 8 8 6 4 5 0 2 2 3 3 2 4 3 2 1 0 1 1 2 2 1 3 1 5 2 4 3 3 0 2 8 9 2 3 5 3 1 8 9 5 6 6 3 8 8 7 8 14 13 12
10 10 10 10 10 10 10 11 10 10 9 10 10 10 10 9 10 9 9 9 10 10 11 11 12 13 13 13 14 14 10 5 5 5 14 7 11 11 12 11 5 4 5 0 3 1 1 2 2 4 3 1 1 1 1 1 1 3 1 2 6 4 6 4 3 4 1 4 8 6 4 4 6 8 1 8 2 4 8 4 4 9 10 12 13 13 13 12
11 10 11 11 10 10 9 10 10 9 9 10 10 10 10 9 9 9 9 9 10 10 11 12 12 13 13 13 14 11 8 4 3 6 9 9 14 13 12 11 7 7 5 2 3 4 2 0 0 2 2 1 2 2 3 2 1 3 3 3 7 5 4 4 6 8 3 2 7 5 3 1 4 2 1 7 7 4 12 10 4 10 12 13 12 13 12 11
11 10 10 10 10 10 9 9 9 9 10 10 9 9 9 8 9 9 9 10 9 10 11 12 13 13 14 14 13 7 2 2 1 2 3 2 12 13 10 9 7 6 4 0 2 3 1 2 2 2 0 0 3 0 1 4 0 2 2 4 5 4 3 6 6 9 5 2 4 2 0 0 1 0 4 9 10 0 3 9 17 15 16 16 15 14 13 13
11 10 10 10 10 10 10 10 10 9 9 10 9 9 9 9 9 9 9 10 10 10 11 12 13 13 14 14 13 2 2 1 0 2 4 3 8 12 12 9 6 4 6 3 2 1 1 0 1 2 1 2 1 0 3 2 2 1 5 5 6 1 1 9 7 8 7 2 1 1 3 0 0 3 7 15 13 8 12 11 8 19 20 19 16 13 11 12
11 11 10 10 9 9 10 10 10 10 10 10 9 9 9 9 9 9 9 9 10 10 11 11 12 13 14 16 6 2 0 2 2 4 2 2 6 11 11 9 7 5 4 1 1 2 2 1 2 1 0 0 2 3 3 1 1 3 4 4 7 5 4 5 3 2 0 1 1 1 1 1 1 4 4 1 7 8 6 10 11 19 22 22 19 16 13 13
11 11 10 10 10 10 9 10 9 9 10 10 9 9 9 9 9 9 9 9 10 10 10 11 11 12 13 11 0 1 1 5 2 8 6 7 7 8 9 8 9 5 4 2 0 0 1 2 2 1 0 1 4 3 7 3 2 3 6 3 7 4 8 9 6 4 3 4 1 1 3 4 2 7 2 2 4 3 5 8 12 12 12 16 17 15 18 15
11 10 10 10 10 10 10 10 10 10 10 10 10 10 9 9 9 9 9 10 9 10 10 10 10 11 11 5 1 1 1 5 8 2 7 10 9 11 11 5 6 4 4 4 4 3 2 3 2 2 1 2 2 2 2 1 0 4 5 4 5 4 7 8 7 6 5 6 1 3 4 1 4 3 2 3 5 3 6 8 8 9 12 9 12 13 12 12
11 11 11 11 10 10 10 10 10 11 10 10 11 10 10 9 9 9 10 9 9 9 10 9 10 9 7 1 1 3 1 6 4 4 8 8 7 8 10 3 4 5 3 3 3 4 2 3 3 3 3 1 1 2 3 1 6 5 10 4 5 4 4 6 8 8 5 4 1 2 3 2 2 4 1 4 3 2 8 9 10 11 13 12 12 12 12 11
11 11 11 11 11 11 11 11 11 11 11 11 10 10 10 10 9 9 9 10 9 9 9 9 9 10 2 0 1 2 2 2 2 6 8 8 7 7 5 5 5 4 3 2 3 1 3 6 3 3 1 4 2 5 0 4 5 2 3 4 9 10 5 6 8 6 5 3 1 2 1 1 4 2 3 1 1 5 9 9 9 13 13 12 11 10 10 12
12 12 12 11 11 11 11 11 11 11 11 10 10 10 10 10 10 9 9 9 9 9 8 8 6 7 1 0 1 1 4 4 1 4 7 8 9 7 5 5 5 4 4 3 6 8 7 3 1 0 0 4 1 4 1 4 1 5 5 5 6 6 7 1 0 5 2 0 0 5 0 0 3 1 5 3 4 8 13 10 11 10 11 11 11 12 9 10
13 12 12 12 11 11 11 11 11 11 11 10 10 9 9 9 9 9 9 7 8 8 7 5 6 2 1 1 2 6 2 1 1 3 4 8 6 9 9 8 8 6 7 4 5 7 7 5 3 2 2 1 2 1 3 4 1 5 2 4 3 3 2 2 4 3 1 1 3 3 3 2 2 4 3 5 5 8 14 12 12 11 9 9 10 9 8 9
13 13 12 12 12 11 11 11 11 11 11 11 10 9 8 8 8 9 8 8 6 5 4 5 4 1 0 3 8 8 3 0 4 4 2 1 2 2 3 4 8 7 9 5 5 5 6 4 3 1 5 1 2 2 1 1 4 4 2 1 2 3 2 3 2 1 1 1 4 2 3 4 4 4 1 4 5 5 11 11 12 10 8 7 7 7 5 5
15 14 13 12 12 11 11 11 11 11 12 11 10 9 6 6 8 8 8 8 7 7 6 5 0 2 0 4 5 3 5 2 2 3 4 3 1 5 3 4 4 4 1 4 6 3 2 3 6 6 1 3 3 3 4 5 4 1 4 3 0 1 2 3 1 1 3 1 2 2 2 7 7 6 3 3 5 9 11 12 12 9 7 7 6 7 9 7
15 14 13 12 12 11 11 11 11 12 12 12 11 9 7 8 8 7 6 5 6 6 5 1 1 0 1 7 6 7 10 2 3 6 6 5 4 4 4 4 5 7 7 7 3 1 1 3 3 1 3 1 1 1 3 4 4 3 2 4 5 1 3 8 5 3 5 1 3 6 0 8 6 6 6 4 5 6 9 10 9 7 6 7 7 6 5 5
15 15 14 13 12 12 11 11 12 12 12 12 12 11 11 10 9 7 6 5 3 1 2 1 1 1 1 5 1 1 3 1 4 11 4 7 5 5 2 3 3 5 5 4 6 6 4 3 2 2 2 3 2 2 4 7 4 4 2 2 3 1 2 5 1 2 3 0 1 3 5 3 4 6 7 6 9 8 9 7 7 7 7 8 7 6 6 7
16 15 14 14 13 12 12 11 11 12 13 11 11 12 10 8 6 3 4 4 3 2 1 1 1 2 1 3 3 3 2 3 3 2 2 5 7 6 2 3 2 6 0 3 2 3 3 0 2 1 5 1 1 2 1 3 4 2 2 0 1 1 2 2 8 2 1 2 3 1 3 4 3 1 2 2 7 10 9 11 10 8 7 7 6 7 8 8
16 15 14 14 13 13 12 11 11 12 13 11 9 9 4 2 4 6 5 2 1 1 2 3 2 2 7 3 1 2 1 4 1 3 5 3 7 3 2 1 2 2 3 4 5 1 1 1 4 2 4 4 1 3 2 3 1 2 3 3 3 1 1 3 2 5 4 1 5 2 5 4 4 3 3 2 4 8 11 12 11 9 7 6 7 8 9 10
16 15 14 14 13 13 12 11 11 11 11 12 8 5 6 7 3 0 1 1 0 1 1 0 1 1 2 2 5 7 3 6 1 4 3 3 1 2 0 1 2 3 3 3 3 2 2 0 3 2 4 3 2 5 6 6 4 2 3 1 1 3 3 5 4 3 1 3 4 2 8 8 5 4 6 1 4 9 12 3 3 5 7 7 8 8 9 11
16 15 15 14 13 13 11 10 9 9 8 6 3 2 1 1 1 0 0 0 3 6 5 4 3 2 7 8 6 4 4 1 2 3 1 0 6 3 3 0 1 4 2 1 3 1 0 1 3 4 7 7 5 6 5 3 5 1 4 2 1 0 4 3 4 4 1 2 1 3 3 2 5 4 8 8 6 1 5 7 7 6 6 7 8 9 11 12
17 16 16 15 14 12 11 10 8 6 5 1 2 1 1 0 2 2 3 7 5 4 5 5 10 7 7 4 3 4 5 3 1 1 2 2 4 5 2 2 0 3 1 2 2 2 2 2 6 8 9 8 4 3 2 3 2 2 4 1 2 0 1 2 1 4 6 3 1 2 2 1 4 5 4 5 3 4 4 7 11 12 11 11 12 12 12 10
17 16 16 15 14 12 10 9 6 5 3 0 0 0 1 2 1 1 1 5 5 10 9 9 2 5 4 7 6 0 3 1 6 5 2 3 1 2 2 2 2 5 3 1 2 3 2 5 9 9 4 1 1 2 2 3 3 3 1 1 1 3 3 7 3 4 3 2 3 3 1 2 3 4 6 2 4 4 4 8 7 10 11 11 10 10 7 5
17 16 15 14 13 12 10 8 4 0 0 0 1 0 2 3 2 1 1 2 7 1 4 3 3 5 8 4 3 7 1 3 4 3 3 4 1 4 2 1 0 1 0 1 2 2 5 6 10 1 5 2 1 1 3 3 3 3 2 1 3 2 2 4 4 3 4 2 1 1 1 6 7 4 6 7 4 4 4 4 5 10 11 9 12 14 12 9
17 15 14 13 12 10 9 7 2 2 2 2 1 3 4 4 3 3 1 3 3 6 4 5 4 3 6 3 3 6 5 3 3 4 2 5 5 2 2 3 0 0 3 2 4 5 8 10 1 4 4 4 3 0 2 3 4 1 2 2 1 1 3 5 4 4 3 2 3 2 4 6 2 4 3 3 3 2 6 5 3 5 7 12 7 2 5 14
17 15 13 12 11 10 7 4 1 2 3 2 3 4 4 4 2 3 0 3 2 4 2 0 3 3 5 1 4 3 3 1 5 2 1 6 3 2 3 2 2 3 5 1 2 1 10 8 0 2 2 2 3 2 4 5 2 3 4 6 5 3 2 3 4 4 5 4 3 3 3 3 4 6 7 9 3 5 4 3 9 7 7 5 9 12 9 6
16 14 12 11 10 9 7 1 1 0 0 1 1 2 4 4 3 2 3 3 2 4 3 2 1 2 0 1 2 2 4 2 4 4 4 6 5 4 0 0 2 3 3 2 4 3 5 4 0 4 4 1 3 4 3 4 3 1 5 7 5 3 2 1 0 2 1 2 3 2 5 4 6 2 3 5 4 8 6 5 8 8 5 8 10 11 12 14
16 14 12 9 8 8 1 1 1 1 1 2 3 3 3 4 1 1 2 3 1 1 1 1 0 1 2 1 3 2 1 3 4 0 2 2 5 1 3 4 2 1 1 2 4 3 1 4 4 1 0 3 2 4 4 7 5 3 2 5 4 3 2 3 3 5 3 2 3 4 3 2 3 5 6 4 4 7 9 10 8 10 12 7 8 11 12 14
15 13 11 9 7 3 0 1 4 1 1 4 3 4 5 3 1 3 2 2 1 1 0 1 1 0 0 1 5 2 2 1 1 1 0 2 4 2 1 3 6 5 2 1 6 6 1 4 0 2 1 2 5 6 4 6 5 4 2 6 2 3 3 4 5 4 1 1 5 5 1 0 2 7 6 2 4 5 9 9 11 11 11 10 10 11 13 15
14 12 9 7 5 2 2 1 1 1 2 3 4 4 4 3 4 5 3 1 1 1 2 1 3 1 1 1 0 0 0 0 1 2 1 1 1 3 1 6 3 2 0 4 7 2 2 6 4 4 3 4 6 4 8 9 1 5 2 4 5 5 5 4 4 5 0 2 2 3 0 2 4 6 5 4 1 6 8 11 11 12 12 9 8 9 11 10
13 10 8 4 1 0 1 0 3 4 3 5 5 5 1 2 2 1 1 1 0 1 0 2 1 2 1 1 1 1 2 1 2 1 2 2 3 2 0 3 3 1 2 2 2 8 4 4 6 4 4 6 5 3 6 9 6 2 4 1 2 6 3 3 5 3 3 0 5 5 2 3 2 6 6 4 4 6 5 7 8 11 11 9 8 8 9 11
12 10 6 2 0 0 0 4 5 1 3 5 5 4 2 6 2 3 0 1 0 2 1 2 1 1 2 2 2 2 0 0 1 1 2 1 2 2 2 2 6 4 2 2 3 5 4 1 1 3 1 2 2 1 2 1 2 1 1 2 2 3 6 2 2 4 1 4 5 3 4 4 1 7 5 8 6 3 3 9 11 13 15 13 7 4 9 10
12 10 6 4 2 0 1 4 2 1 6 5 4 4 3 2 3 0 0 4 1 3 1 2 2 1 2 1 2 0 2 1 0 2 5 4 3 2 3 6 2 1 3 1 2 3 2 4 2 6 3 7 1 0 3 4 4 6 5 6 2 2 3 2 2 3 4 4 1 2 5 2 3 9 6 6 7 7 4 6 9 9 12 10 6 3 4 2
14 9 6 6 2 1 4 6 3 4 4 5 4 3 2 3 0 2 1 3 1 1 2 1 3 2 2 2 3 4 2 3 2 3 3 1 4 4 3 3 3 3 3 2 1 3 5 3 4 4 3 1 6 3 1 0 1 4 5 4 4 0 1 2 4 1 4 6 3 2 1 1 4 6 2 4 6 5 5 4 4 6 10 12 11 4 7 4
16 5 3 5 7 7 4 2 0 3 4 4 2 4 6 2 1 3 1 1 1 1 2 1 4 1 1 3 0 1 3 2 2 3 1 1 1 3 3 2 4 1 1 1 1 1 2 5 4 1 1 2 1 3 5 2 4 6 0 8 8 7 4 3 3 3 5 6 2 4 1 3 1 1 4 5 5 4 4 1 5 10 10 9 9 10 8 6
18 3 3 1 2 7 11 5 1 2 2 3 8 4 2 2 1 0 1 2 2 1 2 3 1 3 2 3 1 2 2 1 2 4 1 3 4 2 3 4 1 5 2 2 3 1 4 5 5 3 1 1 5 3 5 5 2 1 3 5 6 5 7 4 5 3 2 0 2 0 3 4 2 2 3 2 4 7 4 6 13 11 11 14 15 14 11 8
5 0 2 2 1 3 2 3 4 3 1 6 3 2 1 2 1 1 0 2 1 1 4 3 4 4 2 3 1 4 5 2 4 3 2 0 2 1 1 1 1 4 6 5 3 3 2 2 2 6 2 3 0 1 2 5 1 2 1 2 4 2 7 4 2 1 4 4 4 0 6 4 6 3 7 4 11 7 7 10 11 9 8 14 11 10 10 10
3 3 0 2 2 4 2 4 4 4 7 5 4 0 3 2 5 2 2 0 1 0 2 4 3 1 2 3 2 6 4 3 2 3 3 1 2 1 3 2 1 1 2 3 3 4 4 5 3 2 1 1 1 1 3 3 4 5 1 4 1 1 3 3 3 2 3 2 5 1 3 4 3 3 3 6 10 7 9 9 9 12 13 12 8 9 8 9
3 2 1 2 3 2 4 4 4 5 4 3 0 4 1 1 0 0 1 2 1 2 2 2 2 3 1 1 4 2 5 4 6 4 2 1 0 1 1 2 2 4 6 2 5 3 3 4 4 1 1 6 4 1 4 2 3 7 5 2 2 2 2 3 3 1 1 2 3 2 1 3 4 5 1 3 4 4 6 5 9 11 10 7 7 8 8 8
1 2 1 2 5 2 2 3 6 3 1 3 1 1 1 3 2 2 4 2 1 2 1 2 1 1 1 0 3 2 1 2 2 1 2 2 1 0 2 2 3 5 3 5 2 1 2 3 5 2 2 3 3 3 4 2 4 4 3 3 0 4 1 1 1 1 4 3 1 6 1 5 4 5 9 6 5 4 4 5 6 5 4 5 5 7 8 7
4 2 2 1 4 3 1 3 3 4 3 0 2 2 2 1 2 4 7 4 2 1 1 1 1 1 0 2 1 0 2 1 1 2 1 2 1 4 5 6 1 5 5 4 2 0 1 2 2 3 4 2 0 1 2 2 1 3 4 1 2 2 1 2 1 1 2 3 3 3 3 4 5 5 6 7 6 5 6 6 4 4 3 1 3 5 6 7
1 2 1 3 7 4 3 5 3 1 0 1 1 1 2 1 2 2 6 6 2 0 0 1 2 2 2 1 1 1 0 0 1 0 0 2 1 2 3 4 5 4 3 5 5 1 0 1 3 3 3 1 1 2 2 3 3 2 1 1 5 2 1 0 7 2 1 1 3 3 5 6 6 2 0 2 3 4 4 6 4 3 3 3 2 2 3 6
2 1 1 3 8 3 2 3 2 0 1 2 1 0 2 3 0 3 2 3 2 1 1 3 1 1 1 1 2 0 1 1 1 0 1 1 1 1 4 8 4 1 2 0 1 2 1 2 2 2 3 3 3 5 4 4 3 2 4 1 2 3 5 5 2 3 1 2 4 3 1 4 3 4 2 2 1 2 2 2 2 2 3 4 4 4 4 4
3 2 5 4 7 2 5 3 2 4 0 2 4 2 1 1 1 2 2 2 3 1 1 1 1 0 1 1 0 1 2 1 2 1 1 0 0 3 6 11 10 6 3 1 3 0 3 1 1 3 6 6 6 3 1 2 5 5 4 2 3 3 4 5 3 3 2 2 1 1 1 3 4 4 4 2 2 3 2 3 5 4 4 4 5 5 5 6
1 2 4 2 6 5 6 0 1 1 2 4 1 2 3 1 2 4 1 3 0 2 0 0 2 1 1 0 1 0 1 1 2 0 1 1 1 1 12 12 11 4 4 1 1 3 1 3 2 1 3 7 7 7 2 2 5 3 3 1 2 2 3 1 4 1 1 4 5 5 7 1 3 4 4 5 7 7 8 7 5 5 5 4 5 5 5 6
2 1 1 7 8 7 3 2 2 2 1 2 2 3 3 2 2 1 1 3 1 1 1 1 1 0 1 0 0 0 3 1 1 2 0 1 3 2 8 12 9 5 4 3 3 1 1 2 2 2 4 4 3 1 4 4 5 1 1 1 1 2 2 2 0 1 2 2 2 3 3 7 3 4 6 4 4 7 6 6 5 2 2 3 4 4 6 7
3 1 5 5 8 6 4 2 3 1 0 2 3 3 0 1 2 4 1 0 1 1 2 1 3 3 2 2 2 3 3 3 2 1 4 4 4 2 3 8 6 5 10 14 12 2 0 1 1 4 6 7 8 7 5 1 1 2 1 4 1 1 1 3 3 2 4 3 2 6 3 5 8 1 4 3 5 3 4 5 4 5 5 4 4 5 6 6
0 3 2 4 6 6 2 4 3 3 1 0 0 1 1 1 2 3 3 0 4 2 2 4 2 2 2 3 0 1 1 1 4 3 2 1 2 2 8 4 4 11 14 8 12 2 2 1 2 1 4 6 6 5 5 5 4 3 3 2 4 3 5 4 5 5 4 1 10 3 5 5 7 0 1 3 2 0 0 1 3 3 4 4 4 3 4 6
1 0 2 0 0 3 4 4 6 3 3 0 2 2 3 5 3 1 4 1 1 4 1 1 7 3 0 1 1 1 2 1 1 1 1 1 2 5 6 5 3 7 9 3 5 4 1 0 3 2 5 6 6 7 5 2 4 4 5 4 4 5 3 5 4 6 5 5 10 6 5 4 3 2 1 3 3 2 2 1 1 3 1 2 3 5 6 6
3 1 0 2 0 2 1 3 3 1 3 3 0 4 4 4 4 2 1 3 3 3 2 0 1 2 2 1 2 1 0 1 2 1 0 2 1 3 4 5 1 6 7 6 6 0 1 1 1 1 4 4 6 5 4 4 4 3 4 5 6 5 7 7 7 5 9 8 10 9 4 8 3 2 2 1 2 3 2 3 2 1 3 3 3 4 4 4
4 2 3 4 1 1 3 2 1 3 5 5 2 3 1 3 4 6 4 1 1 1 2 2 0 0 1 3 3 3 3 2 1 0 1 1 5 0 1 4 4 2 4 3 2 3 4 4 4 3 3 5 5 5 2 4 6 6 6 4 4 5 6 6 3 2 3 6 6 6 4 6 6 5 2 2 3 3 1 4 5 3 4 3 3 4 4 4
2 0 0 1 3 3 2 3 3 2 2 5 4 3 2 4 3 3 3 2 2 0 0 0 2 0 1 2 2 3 4 6 6 4 4 3 1 3 1 5 2 5 4 1 1 2 3 5 1 1 4 7 4 2 5 3 4 6 6 4 4 5 5 3 4 6 5 6 3 1 2 5 4 3 2 3 4 4 3 4 4 4 3 1 4 3 3 4
2 2 2 1 0 2 2 2 2 2 2 1 2 2 0 3 4 3 0 3 1 1 1 2 2 1 1 1 3 4 6 6 8 6 7 8 5 4 4 3 1 3 1 2 2 2 3 1 1 1 5 6 7 4 4 3 6 11 8 8 12 8 7 1 1 3 6 6 4 5 8 6 7 4 4 3 2 2 3 4 3 2 0 0 2 2 3 4
Wind_Direction
332 328 325 323 321 317 311 316 323 326 328 326 323 321 320 323 328 317 313 313 312 310 314 317 316 317 316 318 322 323 333 321 317 304 191 240 195 211 179 218 99 122 164 105 359 5 332 7 16 332 26 35 284 21 250 139 171 83 137 123 263 220 227 216 199 210 157 329 304 322 12 151 103 80 63 78 40 65 73 73 49 37 58 95 111 121 127 128
332 329 327 323 322 322 321 320 319 318 317 313 314 317 320 322 322 320 313 312 315 314 316 317 314 314 317 319 322 327 337 300 273 256 232 219 191 205 208 224 207 138 109 216 196 202 41 350 21 41 40 354 325 258 360 243 103 131 117 102 214 207 236 166 219 250 355 282 296 276 301 293 142 123 191 98 97 114 79 38 81 77 79 94 106 123 127 136
336 332 329 327 322 322 315 315 312 311 314 316 317 324 325 321 319 318 317 313 309 312 312 313 315 316 317 319 320 333 340 309 268 267 260 242 205 197 204 215 211 152 171 173 205 150 158 199 164 49 7 333 325 238 13 267 156 241 132 232 243 213 246 228 239 266 230 228 314 345 348 86 174 95 132 131 141 132 136 133 96 115 128 126 130 133 137 139
337 334 326 323 322 320 317 314 312 316 317 317 317 315 315 312 309 312 314 315 314 310 313 313 317 319 318 317 319 334 305 282 293 254 262 236 192 198 195 198 194 189 169 269 154 144 141 82 64 94 18 45 293 182 311 269 115 274 111 202 232 217 239 267 229 241 258 123 293 330 349 45 319 295 114 137 95 8 250 182 153 160 150 146 150 149 147 144
338 335 331 327 323 324 321 315 317 311 310 308 312 311 310 310 311 316 312 310 311 313 313 318 320 319 320 319 317 360 333 41 238 234 252 352 180 195 199 191 173 143 162 132 135 85 88 94 73 40 88 263 315 345 242 265 190 93 212 202 218 286 261 264 265 276 271 179 193 75 87 211 345 51 147 153 152 191 198 212 165 150 155 151 154 156 145 144
338 337 335 329 327 322 319 317 315 315 314 315 312 310 307 310 309 306 302 304 311 315 315 318 320 323 322 322 320 144 55 74 289 272 48 42 173 184 189 177 131 123 152 4 113 46 112 23 93 33 4 107 227 165 266 209 150 240 297 236 232 222 237 265 260 292 8 341 226 92 210 40 75 161 191 331 184 210 186 164 167 155 164 162 148 145 148 154
339 334 333 332 328 325 321 318 317 312 310 309 308 306 305 304 304 302 301 307 309 313 316 317 320 324 330 328 142 54 111 266 301 254 73 85 103 133 139 126 118 115 128 130 87 112 93 104 94 209 18 284 268 193 253 227 187 179 248 270 284 176 227 259 276 322 324 122 265 214 123 77 97 148 214 228 265 277 158 172 172 154 136 136 146 158 157 159
334 332 329 331 331 326 324 322 317 315 313 311 311 310 309 305 304 305 302 302 306 309 315 319 322 323 341 347 352 330 47 255 247 265 106 91 88 102 103 87 110 107 130 176 151 153 133 127 166 185 171 173 228 161 288 26 250 213 268 261 262 255 240 260 260 267 264 262 284 57 66 164 164 172 95 282 301 169 127 116 114 129 128 129 139 150 154 157
333 330 331 332 328 328 325 323 320 315 310 308 304 303 300 299 296 298 300 298 301 305 311 318 322 324 327 309 55 2 284 237 225 148 114 98 102 107 119 113 127 132 148 115 151 177 170 249 184 196 272 303 234 265 274 270 312 214 230 250 278 265 269 250 265 253 218 245 208 69 71 299 140 87 58 282 318 159 113 107 124 132 139 146 155 158 159 155
330 330 329 328 328 328 327 323 320 316 312 307 304 300 298 294 295 294 295 297 296 301 307 315 323 329 354 91 22 49 268 218 44 131 115 113 104 107 79 114 137 128 115 180 126 155 178 214 152 173 170 272 230 243 118 127 239 178 238 242 254 261 247 264 232 243 204 232 238 148 133 114 323 107 275 322 46 137 107 119 139 148 152 153 155 165 167 155
333 331 328 329 328 327 325 323 320 319 317 312 306 299 294 292 290 289 290 293 299 298 305 309 327 355 23 4 89 233 267 43 41 122 125 120 110 126 187 151 155 146 154 180 189 197 222 193 138 359 91 230 345 285 154 230 210 273 253 298 286 275 228 305 236 249 151 172 112 121 144 236 315 76 216 193 151 151 133 145 155 161 154 155 164 171 172 166
332 327 328 326 326 324 325 322 319 319 317 314 307 302 292 288 283 280 281 284 292 297 302 309 340 325 284 95 145 222 307 67 111 113 130 136 157 194 181 170 167 168 168 195 232 222 208 198 110 87 234 43 285 296 271 239 251 276 306 304 303 351 176 238 176 235 156 238 165 136 47 352 346 218 235 162 152 159 146 155 164 169 161 157 169 168 174 171
328 327 329 329 323 325 324 321 318 315 318 315 310 303 298 286 279 276 275 278 279 290 294 311 329 278 25 342 229 236 285 150 126 135 146 230 334 282 191 179 182 181 182 181 234 228 207 181 131 171 237 214 221 270 274 15 292 343 30 178 341 6 354 244 342 36 143 268 178 133 278 276 266 268 4 144 149 158 148 162 173 172 159 161 170 170 155 148
329 329 328 323 323 322 320 318 315 313 311 312 306 299 291 283 279 276 269 262 270 274 286 302 288 314 110 243 269 252 258 153 127 129 223 147 339 293 160 208 203 208 235 225 261 261 197 153 171 219 195 190 269 282 3 333 16 315 268 66 103 43 280 310 29 338 169 108 246 85 184 283 268 283 274 196 149 156 174 178 177 167 161 156 169 170 175 175
327 325 325 325 322 319 318 317 312 310 309 305 303 294 284 277 272 265 263 265 257 259 280 26 45 60 20 268 263 265 247 84 164 228 177 157 193 315 267 168 203 203 205 218 245 243 191 145 165 237 253 277 353 21 340 353 349 354 19 299 333 99 281 301 286 180 196 297 53 83 68 242 266 265 252 214 161 167 187 185 180 174 167 160 170 172 163 158
326 326 324 321 320 317 316 314 310 309 303 301 301 297 287 276 264 253 246 240 250 233 83 12 263 155 83 311 263 287 125 131 248 221 212 167 169 212 223 156 196 199 204 264 232 266 281 210 229 218 281 356 53 88 29 19 338 352 69 272 307 26 265 349 19 277 286 83 345 146 212 328 306 232 228 208 184 179 186 200 196 189 175 165 169 168 151 142
326 322 322 319 319 317 314 310 307 304 302 300 301 291 286 270 256 233 236 227 242 226 224 80 135 171 6 237 295 5 288 261 223 72 167 202 170 202 350 5 318 330 351 287 189 225 317 207 319 20 34 143 125 91 343 19 313 317 18 121 226 16 330 318 304 16 262 230 215 233 169 231 243 291 132 252 197 188 191 199 201 189 180 181 165 161 164 166
323 322 320 320 316 316 313 309 307 303 305 310 308 286 253 197 128 92 46 120 199 211 254 233 235 341 289 321 355 328 284 287 282 207 175 201 183 195 230 307 308 6 15 354 353 58 292 276 37 207 359 348 26 47 125 239 197 276 325 14 340 321 169 241 16 276 8 283 215 245 231 268 273 292 291 184 216 194 206 200 196 189 181 174 176 176 174 175
324 323 320 317 315 313 313 310 304 304 309 317 318 66 106 113 123 273 126 157 126 352 24 296 108 21 173 257 289 290 268 225 118 115 234 139 184 157 123 166 19 326 317 37 281 51 342 75 23 20 299 322 278 152 162 215 162 206 171 179 152 58 310 332 252 276 47 294 266 177 211 225 248 283 313 339 102 196 216 209 256 202 182 181 179 182 180 187
326 322 319 316 314 312 311 310 302 304 316 329 20 50 90 15 11 335 307 280 215 218 248 202 198 320 308 284 276 259 263 313 148 245 344 184 105 155 219 214 344 52 101 212 305 329 139 190 224 217 221 233 240 199 195 210 168 95 104 109 144 77 288 278 290 272 90 107 309 238 295 352 283 285 278 284 330 152 186 167 178 202 198 196 193 190 191 194
322 324 318 317 313 313 311 311 308 293 290 304 291 125 29 161 55 310 289 235 224 241 233 227 191 210 238 297 299 25 23 321 50 309 241 111 99 110 269 114 26 286 298 212 187 281 73 2 269 225 225 213 233 211 136 90 63 139 112 43 338 217 305 262 270 318 347 150 296 311 197 303 255 279 274 308 353 306 199 172 182 197 201 197 195 195 197 193
324 321 320 316 315 312 312 308 313 311 56 141 229 86 204 204 207 222 83 318 305 224 222 242 242 268 276 246 259 324 99 280 319 285 291 149 138 149 285 113 155 216 309 324 13 15 6 251 259 240 212 139 133 95 94 133 116 52 241 192 11 300 249 289 282 309 313 91 273 334 88 267 268 271 296 291 258 250 212 181 199 198 202 203 206 204 178 141
324 323 318 317 312 310 313 310 303 203 143 98 45 304 244 235 344 257 134 281 277 260 203 208 223 245 277 255 207 122 119 219 247 292 212 116 49 188 154 92 15 4 325 60 217 295 308 281 253 96 138 124 360 101 116 68 64 108 59 55 252 241 32 301 291 345 353 89 262 260 37 299 305 288 269 265 217 265 270 234 191 175 200 221 208 193 178 182
325 323 321 314 310 310 310 319 84 114 200 200 232 216 255 305 314 15 49 244 293 308 209 214 169 199 230 253 208 138 148 248 139 270 250 127 146 186 92 142 69 234 261 176 175 188 224 243 191 100 123 162 210 64 138 156 222 301 161 157 225 177 230 163 250 321 318 345 81 94 29 332 328 315 304 324 344 334 297 326 257 208 211 202 213 249 212 184
322 322 320 316 310 311 315 311 40 239 158 121 258 247 284 286 7 125 59 333 9 289 256 330 182 237 236 27 95 141 227 309 212 216 176 117 130 72 225 191 115 252 231 119 95 300 286 272 189 256 160 158 174 249 236 140 258 328 247 190 201 198 212 282 327 23 17 334 338 68 1 302 300 300 261 278 336 312 310 336 285 263 190 195 194 202 192 211
322 320 322 319 314 317 314 330 264 170 95 268 214 317 322 317 11 149 97 75 316 266 341 214 125 291 82 241 129 141 73 238 231 226 162 193 149 144 72 40 142 241 243 151 193 198 222 293 268 255 235 169 181 210 239 163 202 83 274 193 209 172 142 139 5 87 20 195 281 26 182 263 329 309 286 284 334 302 305 305 280 280 258 175 200 198 192 192
321 320 322 324 323 317 338 24 232 139 26 306 280 310 308 284 287 140 50 354 28 262 157 243 83 254 83 253 126 73 20 271 300 95 96 220 169 346 146 256 355 354 210 142 40 288 346 310 1 18 119 154 142 247 239 142 119 239 238 133 137 125 141 188 171 177 209 273 301 37 110 196 303 293 254 302 321 284 302 292 264 264 268 228 212 203 197 192
320 320 320 322 329 337 164 321 4 62 231 240 320 328 320 319 106 43 81 61 270 289 283 289 224 360 91 293 118 146 199 215 28 279 170 224 91 355 146 212 189 206 199 78 235 258 126 324 320 311 127 127 198 210 197 147 136 215 201 171 190 219 196 147 138 169 210 145 270 326 337 310 269 267 296 345 292 289 270 267 278 272 259 247 219 206 200 192
320 317 316 315 347 106 90 105 127 244 237 295 322 313 329 55 94 106 113 105 246 330 81 76 298 25 318 338 99 349 359 264 124 257 325 23 60 140 198 243 186 194 339 141 197 281 274 203 235 162 128 218 231 227 163 159 149 277 154 103 66 67 74 127 110 128 317 81 271 265 225 208 288 271 313 343 263 270 265 272 274 267 265 262 225 212 200 192
316 313 309 308 356 336 341 38 220 243 343 338 328 317 57 59 33 45 11 221 311 343 337 245 45 252 45 77 310 346 184 304 224 352 44 144 305 24 279 137 126 107 205 9 181 213 246 313 166 135 192 214 206 229 174 183 183 144 95 88 5 43 21 23 77 99 67 39 249 235 236 161 283 264 231 150 220 201 254 293 282 291 293 277 252 216 178 177
317 308 295 244 112 185 42 344 264 311 324 347 328 13 75 40 114 97 110 229 314 271 349 9 266 349 129 171 267 305 76 287 308 153 254 352 321 46 349 310 39 51 28 357 286 324 337 329 141 246 182 77 168 180 33 30 38 125 71 114 32 321 15 32 337 44 173 275 258 253 186 142 113 293 282 245 282 269 257 278 291 307 307 312 290 230 173 181
320 307 261 179 250 50 158 248 235 17 2 339 37 49 79 256 11 79 240 311 67 291 50 287 283 357 295 232 130 278 188 343 283 158 188 195 212 196 212 180 161 9 338 287 272 348 305 235 253 314 227 170 90 172 313 26 10 78 78 48 78 258 41 279 6 280 219 214 248 193 156 34 216 230 253 287 272 279 238 238 278 299 314 322 326 344 329 235
322 313 234 212 246 252 237 244 330 353 3 22 55 49 57 95 106 272 320 319 248 140 301 192 259 352 332 58 339 299 255 228 279 255 188 339 183 265 245 194 184 164 250 262 283 23 281 295 335 290 319 194 125 170 279 136 337 125 155 136 90 102 47 242 276 213 308 291 259 219 271 249 247 295 256 249 292 296 297 320 338 18 11 4 347 360 110 74
323 314 174 205 199 220 246 233 137 20 17 36 69 29 45 59 250 214 273 261 292 335 301 323 319 57 60 110 15 308 9 307 59 292 146 275 151 271 317 283 157 272 83 155 233 197 38 344 309 165 264 302 93 143 172 182 174 217 91 152 180 145 171 248 204 228 230 220 281 287 87 236 117 200 306 286 303 329 343 343 68 52 47 38 31 33 31 84
316 284 199 298 246 251 238 251 196 121 79 64 51 85 121 245 225 203 266 305 291 320 309 352 318 26 333 27 280 20 98 296 346 320 90 147 244 173 219 267 256 111 151 128 262 75 207 203 254 239 261 109 137 190 137 120 81 270 157 77 87 227 143 221 206 160 228 303 349 243 204 195 157 237 316 329 45 35 357 36 56 45 47 44 33 25 28 36
337 236 154 279 210 269 168 168 134 93 84 51 77 47 182 189 357 165 13 200 330 1 302 9 57 46 317 314 312 32 311 61 316 58 332 66 220 225 267 266 341 189 141 178 202 191 19 288 286 329 14 75 264 227 232 124 164 253 102 190 223 171 109 88 33 47 107 45 256 170 323 298 300 26 7 2 55 16 20 36 47 43 41 57 43 31 26 32
24 333 339 283 268 259 177 132 123 83 62 89 88 327 207 285 202 179 266 132 238 192 54 48 319 66 335 318 297 344 322 37 339 65 312 305 3 292 314 303 166 1 221 133 307 182 147 241 299 105 302 284 75 98 66 348 135 85 90 249 275 98 116 135 213 341 60 163 259 27 202 287 36 259 315 35 62 16 29 28 37 42 32 42 34 37 24 27
348 350 272 297 246 334 95 113 84 52 78 80 90 243 215 84 181 138 282 6 9 32 84 98 276 93 289 13 315 320 312 68 298 34 282 317 221 241 357 297 301 57 310 245 167 290 113 283 294 258 250 276 10 41 9 332 17 138 183 197 106 290 307 321 86 287 270 263 268 304 270 264 189 239 72 44 89 65 55 36 48 45 44 25 11 20 26 27
355 61 22 307 326 336 95 91 67 73 59 50 274 19 272 231 280 29 322 273 134 120 85 233 160 305 131 275 231 317 338 39 308 360 36 291 61 235 85 157 327 1 350 105 67 320 40 199 293 294 162 305 356 63 241 290 323 12 50 31 356 99 165 54 200 191 128 259 60 292 30 242 215 203 160 164 166 152 120 78 81 76 55 39 18 16 28 29
22 33 354 282 306 340 152 69 62 45 71 111 219 219 235 303 347 339 341 25 309 85 239 163 206 276 302 223 139 3 304 82 26 278 110 268 326 318 38 349 29 330 17 28 122 14 283 109 215 279 310 333 314 349 183 146 67 340 33 351 357 24 206 112 58 129 209 189 184 212 307 286 260 218 158 161 168 163 128 119 129 134 142 110 38 31 18 19
318 100 267 290 337 327 45 45 50 43 109 258 143 248 335 343 327 312 312 343 326 355 172 173 158 163 212 52 321 250 359 277 279 24 203 311 108 313 24 17 326 342 6 11 52 6 58 53 216 304 350 264 258 236 178 171 164 152 173 191 158 149 110 59 270 19 76 127 237 126 249 272 277 15 13 150 182 162 160 135 148 158 139 125 106 35 25 37
65 21 272 316 340 30 73 47 359 282 89 83 340 288 313 315 73 290 329 328 63 319 25 115 223 146 144 197 194 93 124 313 242 107 280 157 309 127 316 346 14 280 34 303 236 248 145 157 96 246 214 229 219 277 266 299 98 156 126 185 123 113 100 107 164 268 2 249 129 157 123 277 263 284 341 271 209 183 187 127 107 62 53 51 50 44 46 62
52 216 256 329 338 86 65 56 294 34 32 233 302 289 293 315 80 295 358 352 354 121 360 43 210 58 273 138 209 119 146 254 198 216 215 196 351 49 309 357 351 6 84 353 347 304 92 46 34 303 307 296 313 248 263 357 108 68 21 35 61 96 160 169 172 179 169 297 352 344 211 238 290 338 316 298 283 298 301 11 28 45 32 37 66 67 60 56
211 248 322 306 20 82 78 154 17 330 290 322 29 269 289 241 30 350 5 301 72 329 359 273 346 163 199 90 107 253 190 353 267 168 339 291 86 100 12 353 7 343 31 248 65 271 37 300 123 8 3 341 341 347 4 331 52 86 118 10 107 91 67 111 94 38 128 235 179 135 233 245 241 326 321 354 351 354 358 353 26 36 30 34 55 69 68 60
288 301 272 306 351 51 114 185 138 176 263 295 328 338 349 346 259 250 233 290 332 204 65 322 210 324 28 346 120 11 45 149 280 325 123 69 295 341 360 358 353 9 327 242 174 144 243 213 120 213 209 243 271 280 259 278 269 208 134 89 352 92 129 22 283 23 118 279 128 161 245 259 266 333 348 308 350 340 348 355 356 36 50 44 48 58 61 63
21 348 306 341 6 19 58 40 90 102 104 350 18 276 231 294 321 300 265 261 37 308 69 332 348 57 43 31 30 33 3 350 82 280 36 333 333 335 347 333 24 12 0 23 13 53 152 126 139 159 165 203 214 219 246 119 54 266 232 126 207 56 62 120 95 110 206 226 232 229 184 283 283 346 304 325 34 347 354 350 357 355 356 14 47 41 52 58
173 66 353 330 343 37 53 19 30 33 20 149 101 266 314 258 266 314 347 68 11 39 44 44 348 55 324 64 59 74 301 330 356 68 7 343 273 265 305 296 333 22 19 22 357 79 60 4 273 167 212 224 212 211 230 175 229 233 266 241 165 170 165 137 152 223 187 157 269 248 210 180 250 273 284 309 335 80 215 310 335 338 350 1 8 28 39 45
62 269 95 214 123 284 28 328 28 337 317 264 238 356 341 348 360 345 324 48 33 26 100 329 28 48 176 147 112 90 336 339 16 93 325 245 332 318 349 344 68 0 28 17 12 67 69 286 264 160 264 237 224 236 252 259 206 220 213 204 181 209 166 189 221 211 146 186 237 247 176 214 243 223 250 241 217 183 183 207 236 264 311 346 15 40 36 23
110 294 130 330 117 256 183 270 321 67 27 11 207 38 18 23 348 296 251 321 31 343 65 111 3 336 354 62 115 160 199 38 313 312 159 319 51 336 356 339 326 18 31 7 12 145 60 258 267 270 288 309 288 251 257 231 274 253 234 220 211 174 211 205 225 199 183 221 226 239 184 235 215 232 235 241 268 249 259 267 288 356 1 7 44 47 35 20
6 30 321 360 76 308 293 345 23 47 71 342 66 333 58 23 346 336 336 26 358 319 19 88 266 278 113 102 113 125 214 176 183 245 260 90 340 74 271 204 271 330 41 8 335 319 90 272 12 15 16 290 288 313 310 239 229 250 248 248 218 205 219 223 220 233 198 261 269 270 241 258 260 207 222 290 305 276 307 357 342 343 6 30 55 30 9 3
287 205 344 30 3 306 338 10 25 67 61 348 65 309 47 357 329 315 265 312 134 310 348 230 237 150 25 66 96 177 203 176 170 189 190 147 243 228 134 286 174 312 341 339 20 293 60 270 30 11 316 286 289 293 279 297 251 234 240 204 206 183 206 223 197 210 165 219 222 187 265 255 258 271 264 319 341 8 344 303 314 339 327 28 43 7 352 337
326 295 32 118 281 347 35 333 355 57 22 279 350 301 28 309 298 320 359 318 54 39 185 202 241 80 333 70 240 224 215 184 193 207 195 210 204 223 198 225 256 257 276 232 213 220 184 199 275 255 273 249 259 264 283 318 339 285 249 192 200 204 202 177 288 212 203 156 141 194 230 219 176 176 149 259 287 291 296 275 278 317 309 26 18 340 313 310